www.pogodaiklimat.ru

Погода и климат >> Архив погоды >> Чили >> Arica


ПОГОДА в Arica

  • Прогноз погоды в Arica
  • Монитор погоды в Arica
  • Климат города

АРХИВ ПОГОДЫ в Arica

Время (UTC), дата Ветер
(напр.,м/с)
 
Видим.   Явления Облачность Т
(С)
Тd
(С)
f
(%)
Тe
(С)
Тes
(С)
Комфортность P
(гПа)
Po
(гПа)
Тmin
(С)
Tmax
(С)
R
(мм)
R24
(мм)
S
(см)
12 12.07 В 1 20 км 10/10 630 м
[Sc]
+15.1 +10.5 74 +16 +16 1015.7 1011.3 +13.2
15 12.07 З 4 10 км 9/0
[As trans]
+17.5 +11.2 67 +17 +20 1016.4 1012.0
18 12.07 ЮЗ 4 10 км 9/0
[Ac trans]
+17.9 +11.8 67 +18 +22 1015.6 1011.2
21 12.07 Ю 3 10 км 10/0
[As trans]
+16.5 +12.5 77 +16 +17 1014.6 1010.2
00 13.07 штиль 0 6000 м мгла 9/0
[As op]
+15.8 +13.0 83 +16 +16 1016.1 1011.7 +18.6
03 13.07 СВ 2 10 км ясно +15.1 +10.9 76 +15 +15 1016.6 1012.1
06 13.07 0 5000 м мгла ясно +14.1 +10.8 81 1015.9 1011.4
09 13.07 С 3 10 км ясно +14.3 +10.4 77 +14 +14 1015.3 1010.8
12 13.07 В 3 8000 м мгла 9/9 900 м
[Sc]
+13.9 +10.0 77 +13 +13 1016.0 1011.5 +13.3
15 13.07 С 1 10 км 9/9 750 м
[Sc]
+17.8 +11.4 66 +19 +20 1015.8 1011.4
18 13.07 ЮЗ 3 10 км 9/0
[As trans]
+17.3 +12.1 71 +17 +22 1014.4 1010.0
21 13.07 Ю 3 10 км 10/0
[As trans]
+16.6 +13.0 79 +16 +17 1014.2 1009.8
00 14.07 Ю 2 10 км 10/10 600 м
[Sc]
+16.2 +12.8 80 +17 +17 1014.7 1010.3 +18.4
03 14.07 З 1 3500 м дымка 10/0
[As op]
+15.2 +12.2 82 +16 +16 1015.9 1011.4
06 14.07 СВ 1 10 км 10/10 450 м
[Sc]
+16.2 +12.4 78 +18 +18 1015.7 1011.3
09 14.07 В 3 9000 м мгла ясно +13.2 +10.0 81 +12 +12 1014.8 1010.4
12 14.07 СВ 1 4100 м мгла 6/0
[As op]
+13.9 +10.4 79 +15 +15 1014.0 1009.6 +11.9
15 14.07 ЮЗ 4 10 км 8/0
[As trans]
+17.9 +12.6 71 +18 +22 1014.4 1010.0
18 14.07 ЮЗ 4 10 км 6/6 750 м
[Sc]
+17.7 +13.3 75 +17 +20 1013.1 1008.7
21 14.07 З 3 10 км 6/6 750 м
[Sc]
+17.6 +12.8 73 +18 +18 1013.2 1008.8
00 15.07 Ю 2 10 км 10/10 600 м
[Sc]
+16.9 +12.9 77 +17 +17 1013.9 1009.5 +18.3
03 15.07 штиль 0 8000 м мгла 10/10 480 м
[Sc]
+16.4 +11.8 74 +16 +16 1014.2 1009.8
06 15.07 Ю 1 10 км 10/10 480 м
[Sc]
+16.4 +13.0 80 +17 +17 1013.8 1009.4
09 15.07 В 1 10 км 10/10 480 м
[Sc]
+16.4 +12.4 77 +17 +17 1013.0 1008.6
12 15.07 Ю 2 10 км 10/10 400 м
[Sc]
+16.1 +12.1 77 +16 +16 1014.1 1009.7 +16.0
15 15.07 ЮЗ 2 10 км 10/10 450 м
[Sc]
+16.8 +12.4 75 +17 +17 1015.0 1010.6
18 15.07 ЮЗ 3 10 км 10/10 450 м
[Sc]
+17.3 +12.3 72 +17 +17 1014.2 1009.8
21 15.07 Ю 4 10 км ясно +17.3 +11.6 69 +17 +18 1012.5 1008.1
00 16.07 0 8000 м мгла ясно +14.9 +10.8 76 1013.9 1009.4 +17.7
03 16.07 В 2 10 км 10/10 600 м
[Sc]
+15.3 +11.1 76 +15 +15 1015.4 1011.1
06 16.07 В 2 10 км 10/10 600 м
[Sc]
+15.8 +11.6 76 +16 +16 1014.6 1010.2
09 16.07 В 2 10 км 10/10 600 м
[Sc]
+15.2 +11.4 78 +15 +15 1013.4 1009.1
12 16.07 ЮВ 2 10 км 10/10 600 м
[Sc]
+15.0 +11.2 78 +15 +15 1014.3 1010.0 +13.5
15 16.07 В 2 10 км 10/10 600 м
[Sc]
+15.8 +11.4 75 +16 +16 1016.6 1012.2
18 16.07 штиль 0 10 км 10/10 500 м
[Sc]
+16.9 +12.7 76 +17 +17 1016.0 1011.5
21 16.07 ЮЗ 4 10 км 10/10 700 м
[Sc]
+16.5 +12.3 76 +16 +16 1015.3 1010.9
00 17.07 Ю 1 10 км 10/10 600 м
[Sc]
+16.1 +12.4 79 +17 +17 1016.7 1012.3 +17.7
03 17.07 Ю 2 10 км 10/10 700 м
[Sc]
+15.8 +12.4 80 +16 +16 1018.1 1013.7
06 17.07 Ю 2 10 км 10/10 500 м
[Sc]
+15.6 +13.5 87 +15 +15 1017.8 1013.3
09 17.07 Ю 2 10 км 10/10 500 м
[Sc]
+16.1 +11.9 76 +16 +16 1016.6 1012.2
12 17.07 штиль 0 40 км 10/10 500 м
[Sc]
+16.1 +11.7 75 +16 +16 1017.4 1013.0 +15.6
15 17.07 штиль 0 10 км 10/10 500 м
[Sc]
+16.5 +12.1 75 +16 +16 1018.2 1013.2
18 17.07 ЮЗ 3 20 км 10/10 500 м
[Sc]
+17.1 +11.9 71 +17 +17 1016.4 1012.0
21 17.07 Ю 4 20 км 9/9 600 м
[Sc]
+16.4 +12.4 77 +16 +16 1015.2 1010.8
00 18.07 Ю 2 20 км 10/10 500 м
[Sc]
+16.3 +11.9 75 +16 +16 1018.0 1013.6 +17.6
03 18.07 Ю 2 20 км 10/10 500 м
[Sc]
+16.1 +11.7 75 +16 +16 1018.5 1014.0
06 18.07 0 20 км 10/10 750 м
[Sc]
+15.8 +11.6 76 1017.5 1013.0
09 18.07 Ю 2 10 км 10/10 750 м
[Sc]
+15.7 +11.7 77 +16 +16 1017.0 1012.5
12 18.07 З 2 10 км 10/10 600 м
[Sc]
+15.8 +11.8 77 +16 +16 1017.7 1013.2 +15.6
15 18.07 0 40 км 9/9 600 м
[Sc]
+17.5 +11.4 67 1018.6 1014.2
18 18.07 ЮЗ 5 30 км 8/0 2000 м
[Ac trans]
+18.2 +11.6 65 +18 +21 1016.5 1012.1
21 18.07 ЮЗ 5 30 км 9/9 900 м
[Sc]
+17.2 +11.3 68 +17 +17 1016.9 1012.5
00 19.07 ЮЗ 2 10 км 10/10 900 м
[Sc]
+16.4 +12.2 76 +17 +17 1018.5 1014.1 +18.5
03 19.07 С 2 10 км 10/10 900 м
[Sc]
+16.5 +12.5 77 +17 +17 1020.4 1015.9
06 19.07 СВ 3 10 км 4/0
[Ac trans]
+15.8 +11.6 76 +15 +15 1018.6 1014.1

 

Местоположение метеостанции Arica (Чили): широта -18.46 долгота -70.16 высота над уровнем моря 58 м.

В архиве по умолчанию представлена погода в Arica за последнюю неделю. Архивные данные за месяц целиком и за предыдущие месяцы, начиная с января 2011 года, Вы можете получить, выбрав интересующий диапазон дат из раскрывающегося списка и нажав кнопку "Ввод!".


*Определитесь, кто Вы:
робот инопланетянин человек

Внимание! Время в таблицах - всемирное. Для получения местного времени необходимо прибавить поправку, которая в Arica равна -4 ч.

Смотрите также архив погоды в соседних городах и на ближайших метеорологических станциях:

Погода в Tacna (Перу) (47 км)
Погода в Ilo (Перу) (151 км)
Погода в Iquique (Чили) (230 км)
Погода в Arequipa (Перу) (280 км)
Погода в La Paz (Боливия) (302 км)
Погода в Ovejuyo (Боливия) (311 км)
Погода в Juliaca (Перу) (331 км)
Погода в Oruro (Боливия) (332 км)
Погода в Cochabamba (Боливия) (437 км)
Погода в Calama (Чили) (464 км)

Пояснения к столбцам:

Ветер - указаны скорость ветра в м/с - средняя за 10 мин, порывы в срок и между сроками (в фигурных скобках) и направление, откуда дует ветер: С - северный, СВ - северо-восточный, В - восточный, ЮВ - юго-восточный, Ю - южный, ЮЗ - юго-западный, З - западный, СЗ - северо-западный.
Видимость - горизонтальная дальность видимости в метрах или километрах. При видимости от 1 до 10 км при отсутствии осадков обычно наблюдается дымка, при ухудшении видимости до 1 км и менее - туман. В сухую погоду видимость может ухудшаться дымом, пылью или мглою.
Явления - указаны атмосферные явления, наблюдавшиеся в срок или в последний час перед сроком; фигурными скобками обозначены явления, наблюдавшиеся между сроками (за 1-3 часа до срока); квадратными скобками обозначены град или гололедные отложения с указанием их диаметра в мм.
Облачность - указаны через наклонную черту общая и нижняя облачность в баллах и высота нижней границы облаков в метрах; квадратными скобками обозначены формы облаков: Ci - перистые, Cs - перисто-слоистые, Cc - перисто-кучевые, Ac - высококучевые, As - высокослоистые, Sc - слоисто-кучевые, Ns - слоисто-дождевые, Cu - кучевые, Cb - кучево-дождевые. Подробнее классификацию облаков см. в Атласе облаков (PDF).
T - Температура воздуха - температура, измеренная на высоте 2 м над землей.
Td - Температура точки росы - температура, при понижении до которой содержащийся в воздухе водяной пар достигнет насыщения.
f - Относительная влажность воздуха - влажноcть воздуха, измеренная на высоте 2 м над землей.
Te - Эффективная температура - температура, которую ощущает одетый по сезону человек в тени. Характеристика душности погоды. При расчете учитывается влияние влажности воздуха и скорости ветра на теплоощущения человека.
Tes - Эффективная температура на солнце - температура, которую ощущает человек, с поправкой на солнечный нагрев. Характеристика знойности погоды. Зависит от высоты солнца над горизонтом, облачности и скорости ветра. Ночью, в пасмурную погоду, а также при ветре 12 м/с и более поправка равна нулю.
P - Атмосферное давление - приведенное к уровню моря атмосферное давление.
Po - Атмосферное давление - измеренное на уровне метеостанции атмосферное давление.
Tmin - Минимальная температура - минимум температуры воздуха на высоте 2 м над землей.
Tmax - Максимальная температура - максимум температуры воздуха на высоте 2 м над землей.
R - Количество осадков - Количество выпавших осадков за период времени, мм. При наведении курсора мыши на число - период времени, за который выпало указанное количество осадков.
R24 - Количество осадков - Количество выпавших осадков за 24 часа, мм.
S - Снежный покров - Высота снежного покрова, см. При наведении курсора мыши на число - состояние снежного покрова и степень покрытия местности в баллах.